Location: Unspecified
(0.0000°N, 0.0000°E)
Time: 17:14:54
(UTC+00:00)

Hubble Space Telescope - Pass Details

Date: 14 January 2021
Orbit: 536 x 539 km, 28.5° (Epoch: 24 January)

Event Time Altitude Azimuth Distance (km) Brightness Sun altitude
Exits shadow 03:51:50 18° 80° (E) 1,360 3.3 -31.7°
Drops below altitude 10° 03:53:08 10° 92° (E) 1,775 4.2 -31.4°
Sets 03:55:35 0° 103° (ESE) 2,666 5.4 -30.8°
